Wind_Speed
15 14 15 3 3 4 4 6 5 6 7 4 7 6 12 4 4 4 2 31 34 37 34 31 28 27 27 27 25 23 22 20 20 21 22 22 23 23 21 19 17 16 15 14 14 14 14 15 14
13 12 3 2 4 1 6 6 9 4 5 14 9 11 8 10 5 5 18 28 40 39 35 32 29 28 27 27 26 24 23 21 20 21 22 22 21 21 19 18 16 14 13 12 13 13 13 13 12
10 8 3 4 4 6 6 4 4 5 4 4 8 0 7 6 5 15 18 40 44 38 35 33 29 28 27 26 26 25 24 22 21 21 21 21 20 19 18 16 14 12 12 12 12 11 11 11 10
4 4 3 2 7 7 9 2 10 13 13 7 5 3 3 12 4 14 31 46 45 41 35 32 30 28 27 27 27 25 25 24 22 21 21 21 20 19 17 14 12 11 12 12 11 10 9 8 7
3 3 1 3 8 6 11 2 8 13 10 4 8 7 5 1 8 18 39 48 51 43 37 34 33 30 28 28 28 27 25 24 23 22 22 21 20 18 15 13 11 10 10 11 10 9 8 7 6
1 2 2 6 10 6 8 7 6 12 17 6 2 7 4 3 16 30 36 38 38 45 40 34 32 31 30 29 29 27 25 24 22 21 21 21 20 18 15 13 10 9 9 9 9 7 6 6 5
5 4 6 6 7 7 7 4 6 6 8 5 3 8 5 3 9 26 30 33 37 40 38 34 31 29 29 30 28 27 24 23 22 19 18 18 18 17 15 12 10 8 8 8 7 7 6 5 5
5 3 4 6 8 6 7 3 6 4 3 4 4 5 5 6 22 23 23 27 35 36 36 33 30 29 29 30 28 27 25 24 22 20 18 17 17 17 15 12 10 8 7 7 7 7 7 6 6
4 3 7 7 6 2 12 6 6 5 3 6 7 7 9 30 32 25 28 25 29 31 36 35 32 30 30 29 29 28 27 24 23 20 18 17 18 17 15 13 10 8 7 6 6 7 7 7 8
5 6 8 5 6 2 6 4 6 5 1 4 11 15 14 17 27 22 19 18 22 21 29 32 30 30 30 29 29 28 26 24 23 22 20 18 18 18 16 13 11 9 7 7 7 8 8 9 9
5 8 3 3 9 9 6 8 4 3 2 2 6 9 10 10 12 13 11 29 28 30 32 27 25 24 26 26 24 26 26 25 24 23 21 19 18 17 16 13 13 11 10 10 10 10 10 9 9
5 4 5 3 5 4 5 4 5 4 3 6 11 10 8 10 11 16 17 18 3 10 17 33 27 25 26 27 28 27 27 25 24 23 21 20 20 19 16 15 14 12 11 12 13 13 11 10 9
8 4 2 7 12 6 5 4 3 5 1 4 9 12 12 8 11 3 14 19 17 12 6 14 25 27 24 24 24 25 24 24 24 22 21 21 21 21 18 15 16 14 13 12 12 13 12 13 13
5 13 10 10 12 5 8 5 5 6 6 6 6 10 12 12 9 18 11 4 10 16 9 4 8 23 26 23 25 26 25 25 24 23 23 21 22 21 19 16 20 18 14 14 16 15 14 14 16
14 5 8 16 11 7 5 9 6 2 6 8 8 6 10 12 16 16 12 22 8 6 17 4 10 9 21 24 24 27 26 26 25 25 24 24 23 24 22 17 19 19 15 15 16 15 16 11 6
11 4 14 11 10 6 9 20 6 4 5 10 5 3 5 8 11 7 19 20 17 29 24 13 2 9 10 18 26 25 26 26 25 26 26 25 23 22 24 22 17 21 18 17 16 13 16 16 14
5 12 6 5 8 4 10 13 5 5 2 9 7 5 5 3 8 18 22 30 31 32 24 25 19 14 12 11 16 28 28 29 29 30 28 27 25 23 28 26 17 18 13 16 16 14 19 16 19
4 5 3 6 5 7 6 4 4 4 3 7 9 8 8 6 6 10 29 34 34 33 43 35 40 36 26 22 21 18 26 31 34 36 31 31 32 30 29 27 25 21 17 15 14 16 17 17 14
2 6 8 5 8 6 8 6 7 5 7 6 9 8 7 7 8 6 9 30 26 29 30 42 49 54 36 33 33 25 30 29 27 30 27 29 31 35 34 34 29 22 20 20 19 16 14 13 11
12 6 5 4 6 12 7 10 7 7 6 6 9 8 8 7 7 5 9 17 28 29 30 36 52 53 40 32 28 23 26 36 33 29 25 26 30 32 37 34 28 23 20 18 15 16 15 17 14
16 13 4 4 5 1 2 6 2 6 6 11 13 13 7 11 13 8 7 18 22 26 35 41 44 51 40 42 28 26 35 39 35 33 30 31 30 30 33 29 25 21 20 22 20 21 24 17 14
16 8 8 4 5 4 2 7 6 6 17 18 16 15 12 11 8 5 7 17 26 35 35 37 33 42 46 32 38 27 25 28 33 26 34 36 31 30 32 30 23 21 19 21 23 21 23 20 16
9 8 8 7 5 4 5 1 7 4 17 21 20 21 16 10 9 9 8 10 26 34 39 42 41 41 44 37 37 36 35 38 31 28 26 38 35 32 31 29 24 21 21 23 22 19 28 23 14
6 6 4 2 5 5 6 4 16 13 24 18 9 14 12 10 8 7 10 3 4 25 34 41 42 38 31 38 35 36 36 25 14 9 16 21 26 29 27 28 26 24 24 26 24 22 24 21 17
14 7 2 1 2 12 8 6 20 9 19 22 17 13 12 9 8 7 5 8 5 16 20 25 27 26 18 18 20 16 10 5 2 3 8 12 16 22 25 27 25 26 26 24 23 22 20 17 17
13 10 5 5 5 6 6 12 8 12 23 14 14 11 9 9 8 10 9 9 17 22 24 23 21 19 15 12 7 5 4 5 5 2 1 5 14 20 22 24 24 23 22 25 22 19 19 19 18
7 7 8 5 0 4 5 9 15 17 14 6 10 10 9 8 10 11 7 18 23 27 29 30 31 27 23 21 20 20 22 15 16 18 13 11 12 8 10 16 19 20 21 21 21 20 20 18 17
9 8 4 3 6 5 2 5 2 16 11 8 10 10 12 15 16 13 13 20 24 29 31 34 33 33 29 26 25 25 24 20 18 15 16 13 11 13 16 10 9 14 15 13 15 17 18 19 21
5 6 5 6 5 5 1 6 4 13 25 15 10 15 15 13 12 14 13 20 25 30 34 34 31 28 27 24 23 22 19 18 17 18 15 14 12 12 13 12 11 8 7 9 11 15 19 21 23
10 9 7 5 3 2 4 6 14 22 6 15 17 20 17 14 14 15 13 20 22 23 31 32 31 30 26 22 22 21 20 19 19 18 16 15 14 13 14 15 15 13 14 11 13 12 13 14 14
Wind_Direction
304 317 320 353 44 58 266 250 231 15 336 280 160 138 160 143 235 224 332 172 173 164 165 166 162 157 153 152 149 146 144 141 140 139 138 139 140 140 137 135 133 130 126 125 126 127 128 128 123
299 333 24 80 107 109 266 227 263 191 161 101 114 93 159 201 236 183 139 185 171 164 166 168 167 163 160 159 156 153 152 149 146 146 146 145 145 143 141 140 139 136 131 130 131 131 133 135 129
307 304 84 146 164 194 239 228 275 308 257 247 133 297 159 207 264 161 185 171 168 164 167 169 171 169 165 165 162 161 159 157 152 153 153 152 151 149 147 145 144 143 139 140 136 136 139 138 133
294 15 13 141 224 256 236 329 310 314 313 14 112 176 256 209 164 185 176 167 167 165 169 170 173 174 172 170 170 168 165 164 160 158 161 160 159 156 153 153 149 147 146 146 143 142 143 144 136
217 76 196 200 245 254 268 276 277 292 284 234 162 182 248 223 226 181 165 166 168 165 171 174 177 177 176 175 175 173 171 170 169 165 166 168 168 166 163 158 153 150 152 152 151 148 150 147 145
353 110 128 221 246 261 280 289 302 290 285 212 160 147 230 197 155 150 159 161 170 164 173 177 181 179 177 178 177 177 175 177 176 173 170 172 174 174 171 164 159 159 161 161 159 158 161 163 169
154 112 208 218 243 271 274 339 295 294 318 334 83 120 250 145 167 156 157 161 170 168 171 177 180 181 179 178 178 179 178 181 181 180 177 177 179 178 177 171 169 169 169 173 173 178 184 192 202
150 120 218 221 229 273 269 282 257 4 50 268 292 226 185 127 155 150 147 165 169 168 176 177 180 180 180 178 179 181 182 184 186 185 183 183 184 184 182 181 181 179 180 187 192 200 208 219 230
150 182 219 219 217 248 306 331 304 250 93 80 329 63 310 151 150 150 144 155 166 171 181 181 180 180 180 181 182 184 185 186 187 190 189 188 190 189 190 191 192 195 198 202 212 222 228 237 246
175 206 228 202 226 257 276 334 326 286 314 64 16 26 9 146 144 143 158 155 158 168 183 187 183 182 180 183 185 188 186 188 191 194 194 195 197 196 197 198 202 209 216 224 233 239 244 251 261
212 230 213 204 239 250 274 311 342 271 46 77 68 28 25 7 342 154 171 168 167 179 185 192 190 189 182 185 187 190 192 192 197 199 199 198 200 201 203 209 211 216 228 240 245 248 252 261 271
247 241 215 289 266 277 251 236 290 10 63 130 92 93 72 0 346 15 40 21 114 161 174 187 194 194 193 197 197 195 199 200 202 203 202 202 201 202 204 212 214 222 234 248 254 254 257 254 255
243 264 250 225 263 245 296 241 247 266 48 42 96 84 114 81 328 342 14 55 99 69 138 187 201 203 203 208 201 204 208 207 207 208 208 207 208 206 204 213 221 231 240 254 264 256 260 260 265
224 223 250 247 250 248 236 237 179 240 341 12 85 106 113 140 173 243 228 315 19 39 38 173 201 216 209 217 212 211 213 214 213 212 212 207 211 213 211 225 231 233 241 261 260 257 261 266 267
239 250 221 236 244 212 119 273 223 267 348 334 28 120 128 139 159 204 219 214 192 162 68 91 359 238 224 221 223 218 219 220 217 217 218 213 210 212 217 226 230 230 239 252 252 257 245 252 254
204 190 236 233 229 211 167 257 220 287 2 304 341 64 150 157 156 211 230 231 207 221 234 288 66 300 243 224 231 228 227 224 224 222 219 218 217 216 218 225 231 232 231 236 233 226 227 225 251
229 224 212 222 220 151 189 250 236 228 233 284 298 308 296 223 139 141 170 188 199 213 182 185 169 211 231 226 229 234 230 224 223 224 220 221 218 215 214 220 225 220 229 234 224 225 252 262 253
232 165 195 206 256 192 209 227 271 269 227 247 279 284 294 265 169 142 179 182 178 188 179 158 182 204 210 208 210 243 251 238 234 232 229 231 227 223 220 221 223 222 230 235 237 253 264 270 251
266 199 202 208 227 167 208 206 230 249 277 260 267 268 266 271 161 160 122 194 196 179 182 185 178 194 199 204 215 225 243 229 226 225 229 235 240 232 224 222 221 222 232 239 249 255 242 242 243
240 227 219 255 190 198 221 237 228 231 239 239 260 252 255 262 153 179 148 166 189 193 178 178 181 184 203 213 223 221 249 242 224 228 233 237 242 237 228 225 225 226 231 234 234 227 227 230 206
218 219 177 179 173 266 105 294 271 270 251 256 249 256 230 235 257 157 166 186 192 188 193 198 193 189 199 212 208 212 233 250 233 234 236 239 230 231 229 229 233 239 229 223 226 231 227 202 203
215 184 208 209 147 197 97 263 281 263 259 252 244 246 236 202 228 175 189 183 194 202 193 205 212 205 209 217 205 217 228 236 236 230 232 236 230 232 232 230 239 233 229 221 222 238 242 229 194
219 188 194 218 189 137 161 98 247 299 271 249 246 237 235 199 198 221 237 230 216 206 196 192 201 200 215 213 214 219 223 231 240 232 239 240 239 237 235 229 232 237 234 230 235 226 235 222 218
179 165 180 195 185 240 178 175 272 257 241 258 218 224 220 206 200 198 248 302 329 185 189 190 203 216 224 219 224 225 227 226 223 218 237 240 237 235 237 237 230 233 231 229 229 229 225 222 223
183 141 225 224 210 235 124 228 238 258 244 232 237 218 204 186 176 135 134 112 83 122 175 185 193 196 182 190 207 209 193 199 204 334 245 237 233 231 232 228 232 233 235 230 223 212 216 219 226
196 166 146 169 206 247 138 251 244 238 247 254 224 196 146 169 176 129 127 125 88 89 103 112 109 105 105 127 134 122 92 96 105 108 327 248 232 238 237 231 238 235 226 218 225 217 220 226 232
189 168 181 135 283 185 219 272 274 254 252 200 146 139 145 135 123 123 134 103 97 92 93 96 91 89 87 88 88 86 78 86 93 83 83 74 47 23 265 252 250 240 233 226 224 228 231 233 239
159 167 113 26 161 239 287 314 301 354 258 143 128 144 106 124 121 112 97 97 95 95 94 90 89 88 86 83 81 80 80 78 76 75 64 54 39 29 30 14 274 255 238 240 242 246 251 252 252
144 171 72 117 148 174 58 271 260 325 322 150 138 120 121 117 115 110 104 91 93 91 89 85 81 75 70 68 66 60 55 51 46 41 36 29 10 356 360 5 4 337 304 284 289 284 273 267 266
177 177 142 128 212 118 138 273 357 332 280 131 129 129 132 124 123 113 105 101 97 93 87 83 80 76 71 63 54 48 39 27 22 16 11 8 7 359 348 338 336 339 332 329 322 316 310 309 306
Height
777 776 775 775 802 809 811 792 762 769 757 751 739 750 756 765 771 790 750 755 758 760 765 770 773 774 775 777 781 783 787 790 791 793 795 797 798 800 800 802 804 804 805 805 806 807 808 809 811
776 775 774 782 813 825 812 775 769 763 758 745 744 752 761 761 750 744 746 751 755 757 764 768 772 774 775 777 780 782 786 789 791 793 796 798 800 801 801 802 804 805 806 807 807 808 809 810 811
775 775 784 795 814 819 806 768 759 752 748 746 755 752 756 754 740 737 736 741 749 757 763 768 772 775 775 778 780 782 785 789 790 793 795 798 800 802 803 804 804 806 806 807 807 809 810 812 812
775 776 784 802 807 787 773 762 757 754 741 737 739 757 746 732 735 734 737 736 747 753 762 767 771 775 776 778 781 783 784 787 789 791 795 798 801 803 803 805 806 807 807 808 809 810 812 813 814
774 782 800 804 796 778 759 757 754 755 748 739 735 751 748 730 732 730 735 735 737 747 758 764 768 771 774 777 779 782 785 787 789 789 793 797 800 803 805 806 807 808 809 809 811 812 813 814 814
782 784 808 808 789 770 760 755 755 751 739 738 738 742 738 729 732 733 736 740 747 740 753 762 768 769 771 777 780 783 784 789 791 792 793 796 799 802 805 806 808 809 810 811 812 813 814 814 814
783 794 800 792 784 776 763 751 755 750 745 737 731 744 735 730 737 740 741 742 744 747 752 761 766 770 773 776 780 784 786 790 793 795 796 798 801 803 805 806 807 809 811 812 812 813 814 814 814
775 785 787 784 779 779 756 752 743 743 746 733 725 744 738 729 736 741 745 747 748 749 756 760 767 771 774 776 779 783 786 789 793 795 797 799 802 804 805 806 807 809 811 812 812 813 813 814 814
764 790 791 782 776 769 750 757 741 732 736 740 739 730 732 723 735 741 744 749 751 752 756 760 765 770 774 777 778 780 783 787 791 795 797 799 801 803 804 805 807 809 810 811 812 812 813 814 814
770 782 774 761 760 762 754 753 750 743 737 740 739 730 735 736 734 742 746 748 748 755 762 767 769 771 773 777 779 782 784 787 790 793 796 798 801 802 803 805 807 808 810 811 811 812 812 812 813
762 767 758 753 754 753 754 753 745 745 749 745 747 739 741 751 754 744 746 740 748 756 765 772 775 778 777 779 783 785 787 787 790 792 795 797 800 802 803 805 805 806 808 809 809 810 811 811 812
765 752 755 753 750 752 753 749 748 749 752 745 739 741 747 756 765 770 764 765 764 768 768 766 774 776 779 781 783 784 787 788 790 792 794 797 798 800 801 803 804 805 805 807 808 809 810 810 810
761 755 751 751 751 748 747 751 749 747 743 747 746 743 750 758 760 779 774 769 770 772 771 775 775 780 785 784 785 788 790 790 791 793 795 796 799 799 800 801 802 803 804 805 806 808 809 809 810
747 752 754 751 750 746 751 750 745 741 736 741 749 750 749 751 767 773 770 768 775 776 776 777 780 786 786 787 786 787 789 790 792 792 793 793 797 799 799 800 800 801 802 802 803 805 806 808 807
747 756 754 747 747 748 743 754 751 739 736 739 746 751 753 756 764 765 754 754 762 775 774 779 785 788 789 788 790 789 788 791 792 791 793 793 793 794 798 798 799 800 800 799 800 801 803 804 803
751 754 762 744 744 743 747 754 744 737 740 739 743 751 752 755 755 753 749 751 747 761 763 773 780 792 790 790 789 791 791 792 793 792 791 793 794 793 795 797 797 797 798 798 798 800 800 802 802
753 755 761 751 738 741 748 750 740 735 741 742 740 744 750 749 751 752 753 751 751 755 759 766 779 789 787 788 788 792 789 789 789 789 788 790 790 789 791 794 795 795 795 796 797 797 798 798 799
756 757 750 756 740 743 750 750 741 735 738 743 737 738 740 743 744 748 751 753 755 759 759 758 762 774 776 776 779 790 792 787 790 786 783 784 785 787 789 791 792 791 793 794 794 795 796 795 797
735 745 749 745 739 743 750 749 745 739 738 739 737 735 737 739 741 742 744 749 754 758 757 757 758 760 766 766 772 775 785 782 783 781 779 779 782 782 785 786 787 788 789 791 792 792 794 795 796
739 746 748 738 735 740 746 749 742 738 738 735 735 733 734 734 739 740 739 740 747 751 759 756 754 759 762 767 770 769 776 777 770 774 774 774 778 778 779 782 783 784 787 789 789 789 791 793 793
734 739 744 745 737 736 743 754 748 739 736 730 729 726 727 729 729 738 738 735 738 743 747 752 752 753 761 761 765 767 766 772 766 763 767 770 774 774 775 778 780 781 782 784 786 787 788 789 793
734 725 732 738 749 768 750 767 751 744 736 728 723 722 721 724 725 729 734 737 733 734 743 749 753 755 758 758 762 762 765 767 762 760 763 767 769 769 770 772 776 777 776 777 779 783 785 782 785
723 720 731 735 748 757 760 778 750 743 736 720 714 713 714 717 720 722 728 728 731 731 736 740 747 751 754 756 757 759 761 762 761 759 760 763 765 766 767 767 769 769 772 775 776 778 780 780 778
709 721 730 733 744 765 748 759 734 734 719 710 707 705 702 710 714 716 721 724 724 724 729 732 741 746 748 751 755 756 757 758 758 759 758 758 758 760 762 763 764 766 767 768 771 772 776 774 772
712 735 766 773 770 752 743 755 727 711 701 698 696 699 699 707 712 718 721 723 726 721 724 730 739 745 747 748 753 753 752 754 753 755 756 754 754 755 756 758 760 763 764 766 768 768 768 769 771
709 725 760 762 766 744 735 740 719 695 684 685 682 691 701 706 710 718 724 726 724 726 728 731 738 740 742 746 753 753 746 749 750 751 752 752 754 756 756 756 759 759 758 762 765 764 764 766 768
709 728 721 739 735 748 740 722 694 685 681 680 689 694 702 708 714 720 726 725 726 731 735 738 739 742 745 747 752 753 749 753 752 752 752 753 756 753 754 754 756 756 758 759 761 761 763 763 765
696 702 731 750 761 755 736 733 723 705 685 686 695 697 704 709 714 718 721 723 729 734 739 740 742 745 750 752 753 756 757 760 758 757 757 756 757 756 754 754 753 755 758 759 759 760 761 760 762
697 707 727 736 744 758 766 746 713 714 703 686 698 697 705 711 716 719 725 728 733 737 740 744 746 747 749 753 753 756 760 758 758 757 758 756 756 757 757 756 756 757 755 756 754 757 758 759 757
677 696 713 741 741 745 754 750 711 706 694 684 694 696 705 712 721 723 729 735 740 743 743 747 750 751 755 758 760 760 759 760 759 760 761 760 758 758 759 758 756 755 758 756 758 754 755 756 755